Other Public Products
Issued by NWS Grand Forks, ND

Home | Current Version | Previous Version | Text Only | Print | Product List | Glossary Off
Versions: 1 2 3 4 5 6 7 8 9 10 11 12 13 14 15 16 17 18 19 20 21 22 23 24 25 26 27 28 29 30 31 32 33 34 35 36 37 38 39 40 41 42 43 44 45 46 47 48 49 50

000
FPUS83 KFGF 291910
OPUFGF
PRAIRIE TO PINES WEATHER ROUNDUP
NATIONAL WEATHER SERVICE EASTERN NORTH DAKOTA/GRAND FORKS ND
200 PM CDT FRI MAY 29 2015

 **SATELLITE DATA USED TO AUGMENT SKY COVER AT AUTOMATED STATIONS**
 *****  WEATHER ACROSS EASTERN NORTH DAKOTA  *****

CITY           SKY/WX    TMP DP  RH WIND       PRES   REMARKS
GRAND FORKS    PTSUNNY   50  39  66 N25G32    30.18F
GRAND FORKS AF PTSUNNY   52  37  57 N21G30    30.19S
GRAND CITY NWS   N/A     48 N/A N/A N14         N/A
BUXTON         NOT AVBL
DEVILS LAKE    CLOUDY    50  34  53 N20G26    30.23S
FARGO          CLOUDY    49  40  71 N24G35    30.15R
WAHPETON ARPT  CLOUDY    46  39  76 N24G32    30.11S
$$

 *****  WEATHER ACROSS CENTRAL AND WESTERN NORTH DAKOTA  *****

CITY           SKY/WX    TMP DP  RH WIND       PRES   REMARKS
JAMESTOWN      PTSUNNY   53  39  59 N23G33    30.18S
BISMARCK       CLOUDY    53  34  48 N17G25    30.26S
MINOT          CLOUDY    48  34  58 NW14      30.30R
MINOT AFB      CLOUDY    51  38  60 N9        30.29S
GARRISON         N/A     50  34  54 N9G21     30.28S
WILLISTON      SUNNY     54  33  45 NE9       30.32S
DICKINSON      PTSUNNY   51  34  52 N10       30.27F
HETTINGER      CLOUDY    50  36  58 N12G28    30.28S
$$

 *****  OTHER OBSERVATIONS NORTHEAST NORTH DAKOTA  *****

CITY           SKY/WX    TMP DP  RH WIND       PRES   REMARKS
WALHALLA         N/A     50  32  50 MISG      30.24S
LANGDON        MOCLDY    50  36  57 N18G28    30.23S
CAVALIER       NOT AVBL
GRAFTON        MOCLDY    50  39  66 N23G32    30.21S
CANDO          FAIR      52  34  50 N20G28    30.25F
FORT TOTTEN      N/A     50  35  57 N7        29.95
ROLLA          FAIR      48  36  61 N20G26    30.26S
RUGBY          NOT AVBL
 ***** THE ABOVE OBSERVATIONS ARE NON NWS ARE NOT QUALITY
        CONTROLLED AND MAY MIS-REPORT RAIN FOR SNOW...
$$

 *****  OTHER OBSERVATIONS SOUTHEAST NORTH DAKOTA *****

CITY           SKY/WX    TMP DP  RH WIND       PRES   REMARKS
COOPERSTOWN    NOT AVBL
VALLEY CITY    FAIR      54  39  58 N21G32    30.16S
OAKES            N/A     48  45  87 N18       30.15R
GWINNER        NOT AVBL
SHEYENNE NWR     N/A     50  41  70 N14       29.95S
BUFFALO        NOT AVBL
WYNDMERE         N/A     46  43  87 N20         N/A
 ***** THE ABOVE OBSERVATIONS ARE NON NWS ARE NOT QUALITY
       CONTROLLED AND MAY MIS-REPORT RAIN FOR SNOW...
$$

  *****  WEATHER ACROSS NORTHERN MINNESOTA  *****

CITY           SKY/WX    TMP DP  RH WIND       PRES   REMARKS
FLAG ISLAND    SUNNY     48  37  66 N23G31    30.11S
WARROAD        MOSUNNY   50  39  66 NW17G23   30.13S
ROSEAU         MOSUNNY   54  43  66 NW18      30.13S
HALLOCK        MOSUNNY   54  37  54 N24G31    30.19S
THF RVR FALLS  CLOUDY    48  37  66 N17G24    30.14F
HALSTAD        NOT AVBL
FOSSTON        CLOUDY    46  43  87 N18G26    30.12S
BAUDETTE       CLOUDY    50  41  71 NW17G24   30.09R
WASKISH        CLOUDY    52  43  71 NW9       30.08S
CROOKSTON      PTSUNNY   50  39  66 N24G31    30.16F
$$
  *****  WEATHER ACROSS CENTRAL AND WEST MINNESOTA  *****

CITY           SKY/WX    TMP DP  RH WIND       PRES   REMARKS
BEMIDJI        CLOUDY    48  42  78 N15G21    30.08R
PARK RAPIDS    CLOUDY    51  43  74 N14       30.05R
WADENA         CLOUDY    54  48  82 N13       30.02S
DETROIT LAKES  CLOUDY    48  43  81 N13G29    30.10R
MOORHEAD       CLOUDY    46  39  76 N25G31    30.15R
FERGUS FALLS   CLOUDY    50  43  76 N18       30.08R
ELBOW LAKE     CLOUDY    52  47  85 N21G29    30.04R
MORRIS MN      DRIZZLE   52  50  93 NW23      30.02R
STAPLES        CLOUDY    50  48  93 N14G24    30.02R
WHEATON        CLOUDY    45  41  87 NW28G33   30.11R
$$
  *****  WEATHER ELSEWHERE ACROSS MINNESOTA  *****

CITY           SKY/WX    TMP DP  RH WIND       PRES   REMARKS
DULUTH         LGT RAIN  64  56  75 N9        29.92S
INTRNTL FALLS  CLOUDY    55  44  66 N13       30.03S
ELY            NOT AVBL
CLOQUET        CLOUDY    63  55  77 N12       29.93F
BRAINERD       CLOUDY    53  51  93 N18G24    30.00R
HIBBING        CLOUDY    53  50  89 N16       29.98R
ALEXANDRIA     CLOUDY    52  50  93 N13G24    30.02R
SAINT CLOUD    LGT RAIN  62  59  90 N14G20    29.93R
MINNEAPOLIS    CLOUDY    71  63  75 W9        29.90S
$$

  *****  WEATHER ACROSS SOUTH DAKOTA  *****

CITY           SKY/WX    TMP DP  RH WIND       PRES   REMARKS
SIOUX FALLS    RAIN      56  54  93 N18       29.96R
BROOKINGS      CLOUDY    52  46  82 N24G31    30.02R
WATERTOWN      CLOUDY    48  45  89 N16G30    30.06R
HURON            N/A     52  47  83 N22G31    30.08R
SISSETON         N/A     50  46  86 N25G36    30.09R
ABERDEEN       CLOUDY    51  43  74 N20       30.15R
MITCHELL       LGT RAIN  54  52  93 N25G35    30.04R
PIERRE         CLOUDY    51  46  83 N24       30.16R
MOBRIDGE       CLOUDY    52  42  69 N17       30.19R
RAPID CITY     CLOUDY    47  44  90 N20G30    30.25R FOG
$$

  *****  SOME WEATHER IN NEARBY STATES *****

CITY           SKY/WX    TMP DP  RH WIND       PRES   REMARKS
GLASGOW MT     SUNNY     54  32  43 MISG      30.32F
GREAT FALLS MT MOSUNNY   58  47  66 E9        30.21F
CHEYENNE WY    LGT RAIN  54  42  64 N22G30    30.24R
SCOTTSBLUFF NE RAIN      52  32  46 N13       30.23R
OMAHA NE       CLOUDY    76  59  55 SW8       29.91F
DES MOINES IA  LGT RAIN  74  65  73 SW17G25   29.94R
DAVENPORT IA   PTSUNNY   80  64  58 SW14      29.94F
CHICAGO IL     CLOUDY    79  65  62 S15G24    29.96F
EAU CLAIRE WI  CLOUDY    71  63  75 SW5       29.89F
LA CROSSE WI   CLOUDY    78  65  63 S7        29.88F
$$

  *****  SOME NATIONAL WEATHER *****

CITY           SKY/WX    TMP DP  RH WIND       PRES   REMARKS
LA GUARDIA NY  MOSUNNY   80  54  40 S12       30.26R
RALEIGH NC     MOSUNNY   86  65  49 VRB5      30.22F
ATLANTA GA     PTSUNNY   82  63  52 E12G17    30.20F
NEW ORLEANS LA PTSUNNY   83  69  62 S12       30.07F
OKLAHOMA CITY  CLOUDY    74  62  66 CALM      29.96F
ALBUQUERQUE NM PTSUNNY   76  33  21 N6        30.16F
SALT LAKE CITY MOSUNNY   71  42  35 N6        30.19S
LOS ANGELES CA MOSUNNY   67  58  72 SW10      29.96S
BOISE ID       SUNNY     81  40  23 SE15G30   30.07F
SEATTLE WA     MOSUNNY   70  55  59 VRB7      29.99S
$$

*** WEATHER ACROSS MANITOBA...SASKATCHEWAN AND ONTARIO ***
                ***ONTARIO***

CITY           SKY/WX    TMP DP  RH WIND       PRES   REMARKS
GERALDTON      LGT RAIN  55  55 100 NW5       29.84R FOG
THUNDER BAY    LGT RAIN  57  55  94 W6        29.85S
SIOUX LOOKOUT  CLOUDY    52  46  82 NW13G23   30.01R
TORONTO        PTSUNNY   77  55  47 SE12      30.16F
BIG TROUT LK   LGT RAIN  37  37 100 E7        30.04S
PICKLE LAKE    PTSUNNY   52  45  76 N6        29.94S
DRYDEN         CLOUDY    48  43  81 NW10      30.04R
KENORA         CLOUDY    46  37  71 NW12G24   30.11R
$$
                *** MANITOBA***

CITY           SKY/WX    TMP DP  RH WIND       PRES   REMARKS
BRANDON        MOSUNNY   50  30  46 NE8G22    30.29S
DAUPHIN        CLOUDY    45  36  70 N21G26    30.35S
ISLAND LAKE    CLOUDY    32  27  80 N13G28    30.25R WCI  22
PILOT MOUND      N/A     48  34  57 N17G23      N/A
THE PAS        CLOUDY    41  21  45 N13       30.41S
THOMPSON       FLURRIES  34  23  64 N13G22    30.39S WCI  25
WINNIPEG       PTSUNNY   50  36  57 N20G29    30.25R
LYNN LAKE      CLOUDY    36  21  55 N12       30.42S
CHURCHILL      CLOUDY    28  19  69 N16       30.43S WCI  17
GILLAM         SNOW      27  25  93 N21       30.34S VSB 3/8 WCI  13
$$
                ***SASKATCHEWAN***

CITY           SKY/WX    TMP DP  RH WIND       PRES   REMARKS
ESTEVAN        MOSUNNY   52  32  46 N16       30.32S
KINDERSLEY     PTSUNNY   54  30  40 VRB9      30.33F
LLOYDMINSTER   PTSUNNY   54  23  30 SE10      30.34F
PRINCE ALBERT  PTSUNNY   48  25  40 NW9       30.42S
REGINA         MOSUNNY   52  23  32 N9G17     30.35F


USA.gov is the U.S. government's official web portal to all federal, state and local government web resources and services.